CZ-4 DEB, 26273

Orbit data source: Space-Track

CZ-4 DEB, 26273 is space debris in SSO originally from a launch on Thu, 14 Oct 1999 UTC launched from the Taiyaun Space Center, China (TSC). Debris objects in space refer to the collection of defunct objects orbiting the Earth. Examples of debris include non-operational satellites, rocket bodies, and fragments generated from explosions, collisions, or faulty payload assembly.

Loading next visibility...
Identifier
26273, 1999-057FK
Orbit
SSO
Country
Flag of CNCN / PRC
Related business
Manufacturer
Unknown
Mission
Spacecraft
Bus & Motor
Unknown
Mass
Unknown
Launch date (UTC)
1999-10-14 (26 years ago)
Launch vehicle
Unknown
Launch site
Taiyaun Space Center, China (TSC)
Object type
Payload
Rocket body
Debris
Shape & HBR
Unknown shape, 0.2 m
Radar Cross Section
Medium (>0.1 m² and <1 m²)

Expand to show TLE details & history
Last TLE update: 3 hours ago

TLE from 3 hours ago
0 CZ-4 DEB
1 26273U 99057FK  26038.32969888  .00002469  00000-0  31213-3 0  9996
2 26273  98.6902 178.2517 0058090 343.0346  74.6398 14.81767954390160
Epoch: 2026-02-07T07:54Z
TLE epoch observation values (Epoch: 2026-02-07T07:54:45.983Z)
Latitude
57.36951°
Longitude
-91.62917°
Altitude
622.816 km
Speed
7.559 km/s
True Right ascension
10h 58m 04s
True Declination
57° 12' 36"
Sunlit
Object was in full shadow at epoch
Visualization orbit readout
Latitude
Unknown
Longitude
Unknown
Altitude
Unknown
Speed
Unknown
Apparent Right ascension
Unknown
Apparent Declination
Unknown
Sunlit
N/A
Visualization observer readout
Local Sidereal Time
13:34:33
Azimuth
Unknown
Elevation
Unknown
Doppler factor
Unknown
Orbital elements
Apogee altitude
661.482 km
Perigee altitude
580.168 km
Semi-major axis
6,998.962 km
Eccentricity
0.00581
Inclination
98.6902°
RAAN
178.2517°
Arg. of periapsis
343.0346°
True anomaly
75.28291°
Mean anomaly
74.6398°
Eccentric anomaly
74.96123°
Mean motion
3.70675 °/min
Orbital period
97.12 mins
BSTAR
0.00031213
Loading maneuver chart data...
Computing Atmospheric mass density...

Documentation

Showing up to 5 results
|